Time,TemperatureF,DewpointF,PressureIn,WindDirection,WindDirectionDegrees,WindSpeedMPH,WindSpeedGustMPH,Humidity,HourlyPrecipIn,Conditions,Clouds,dailyrainin,SoftwareType,DateUTC
2013-07-09 00:02:00,76.0,72.0,30.05,SSW,206,0.0,1.0,86,0.00,,,0.00,,2013-07-09 05:02:00,
2013-07-09 00:11:00,76.0,72.0,30.05,SSW,206,0.0,1.0,86,0.00,,,0.00,,2013-07-09 05:11:00,
2013-07-09 00:22:00,76.0,72.0,30.05,SSW,206,0.0,1.0,86,0.00,,,0.00,,2013-07-09 05:22:00,
2013-07-09 00:52:00,77.0,71.0,30.05,SSW,206,0.0,2.0,83,0.00,,,0.00,,2013-07-09 05:52:00,
2013-07-09 01:01:00,77.0,71.0,30.05,SSW,206,0.0,2.0,83,0.00,,,0.00,,2013-07-09 06:01:00,
2013-07-09 01:11:00,77.0,71.0,30.05,SSW,206,0.0,2.0,83,0.00,,,0.00,,2013-07-09 06:11:00,
2013-07-09 01:22:00,77.0,71.0,30.05,SSW,206,0.0,1.0,83,0.00,,,0.00,,2013-07-09 06:22:00,
2013-07-09 01:33:00,77.0,71.0,30.05,SSW,206,0.0,1.0,83,0.00,,,0.00,,2013-07-09 06:33:00,
2013-07-09 01:43:00,77.0,71.0,30.05,SSW,206,0.0,1.0,83,0.00,,,0.00,,2013-07-09 06:43:00,
2013-07-09 01:53:00,77.0,71.0,30.05,SSW,206,0.0,1.0,83,0.00,,,0.00,,2013-07-09 06:53:00,
2013-07-09 02:02:00,77.0,71.0,30.05,SSW,206,0.0,1.0,83,0.00,,,0.00,,2013-07-09 07:02:00,
2013-07-09 02:22:00,77.0,71.0,30.05,SSW,206,0.0,3.0,82,0.00,,,0.00,,2013-07-09 07:22:00,
2013-07-09 02:34:00,77.0,71.0,30.05,SSW,206,0.0,3.0,82,0.00,,,0.00,,2013-07-09 07:34:00,
2013-07-09 02:43:00,77.0,71.0,30.05,SSW,206,0.0,3.0,82,0.00,,,0.00,,2013-07-09 07:43:00,
2013-07-09 02:53:00,77.0,71.0,30.05,SSW,206,0.0,3.0,82,0.00,,,0.00,,2013-07-09 07:53:00,
2013-07-09 03:01:00,77.0,71.0,30.05,SSW,206,0.0,3.0,82,0.00,,,0.00,,2013-07-09 08:01:00,
2013-07-09 03:22:00,76.0,70.0,30.05,SSW,206,1.0,2.0,83,0.00,,,0.00,,2013-07-09 08:22:00,
2013-07-09 03:33:00,76.0,70.0,30.05,SSW,206,1.0,2.0,83,0.00,,,0.00,,2013-07-09 08:33:00,
2013-07-09 03:43:00,76.0,70.0,30.05,SSW,206,1.0,2.0,83,0.00,,,0.00,,2013-07-09 08:43:00,
2013-07-09 03:52:00,76.0,71.0,30.04,SSW,206,0.0,2.0,84,0.00,,,0.00,,2013-07-09 08:52:00,
2013-07-09 04:02:00,76.0,71.0,30.04,SSW,206,0.0,2.0,84,0.00,,,0.00,,2013-07-09 09:02:00,
2013-07-09 04:12:00,76.0,71.0,30.04,SSW,206,0.0,2.0,84,0.00,,,0.00,,2013-07-09 09:12:00,
2013-07-09 04:22:00,76.0,71.0,30.04,SSW,206,0.0,2.0,84,0.00,,,0.00,,2013-07-09 09:22:00,
2013-07-09 06:33:00,75.0,70.0,30.05,SSW,206,0.0,1.0,85,0.00,,,0.00,,2013-07-09 11:33:00,
2013-07-09 06:53:00,75.0,70.0,30.05,SSW,206,0.0,1.0,85,0.00,,,0.00,,2013-07-09 11:53:00,
2013-07-09 07:02:00,75.0,70.0,30.05,SSW,206,0.0,1.0,85,0.00,,,0.00,,2013-07-09 12:02:00,
2013-07-09 07:11:00,75.0,70.0,30.05,SSW,206,0.0,1.0,85,0.00,,,0.00,,2013-07-09 12:11:00,
2013-07-09 07:22:00,75.0,70.0,30.05,SSW,206,0.0,1.0,85,0.00,,,0.00,,2013-07-09 12:22:00,
2013-07-09 07:33:00,76.0,70.0,30.05,SSW,206,0.0,3.0,83,0.00,,,0.00,,2013-07-09 12:33:00,
2013-07-09 07:53:00,76.0,70.0,30.05,SSW,206,0.0,3.0,83,0.00,,,0.00,,2013-07-09 12:53:00,
2013-07-09 08:01:00,76.0,70.0,30.05,SSW,206,0.0,3.0,83,0.00,,,0.00,,2013-07-09 13:01:00,
2013-07-09 08:11:00,76.0,70.0,30.05,SSW,206,0.0,3.0,83,0.00,,,0.00,,2013-07-09 13:11:00,
2013-07-09 08:22:00,76.0,70.0,30.05,SSW,206,0.0,3.0,83,0.00,,,0.00,,2013-07-09 13:22:00,
2013-07-09 10:33:00,81.0,73.0,30.05,SSW,212,3.0,6.0,77,0.00,,,0.00,,2013-07-09 15:33:00,
2013-07-09 10:52:00,81.0,73.0,30.05,SSW,212,3.0,6.0,77,0.00,,,0.00,,2013-07-09 15:52:00,
2013-07-09 11:02:00,81.0,73.0,30.05,SSW,212,3.0,6.0,77,0.00,,,0.00,,2013-07-09 16:02:00,
2013-07-09 11:11:00,81.0,73.0,30.05,SSW,212,3.0,6.0,77,0.00,,,0.00,,2013-07-09 16:11:00,
2013-07-09 11:22:00,81.0,73.0,30.05,SSW,212,3.0,6.0,77,0.00,,,0.00,,2013-07-09 16:22:00,
2013-07-09 11:33:00,85.0,75.0,30.04,SSW,209,3.0,7.0,73,0.00,,,0.00,,2013-07-09 16:33:00,
2013-07-09 11:53:00,85.0,75.0,30.04,SSW,209,3.0,7.0,73,0.00,,,0.00,,2013-07-09 16:53:00,
2013-07-09 12:02:00,85.0,75.0,30.04,SSW,209,3.0,7.0,73,0.00,,,0.00,,2013-07-09 17:02:00,
2013-07-09 12:11:00,85.0,75.0,30.04,SSW,209,3.0,7.0,73,0.00,,,0.00,,2013-07-09 17:11:00,
2013-07-09 12:22:00,85.0,75.0,30.04,SSW,209,3.0,7.0,73,0.00,,,0.00,,2013-07-09 17:22:00,
2013-07-09 12:53:00,89.0,76.0,30.02,SW,228,2.0,9.0,65,0.00,,,0.00,,2013-07-09 17:53:00,
2013-07-09 13:02:00,89.0,76.0,30.02,SW,228,2.0,9.0,65,0.00,,,0.00,,2013-07-09 18:02:00,
2013-07-09 13:11:00,89.0,76.0,30.02,SW,228,2.0,9.0,65,0.00,,,0.00,,2013-07-09 18:11:00,
2013-07-09 13:22:00,90.0,76.0,30.01,SW,233,3.0,7.0,64,0.00,,,0.00,,2013-07-09 18:22:00,
2013-07-09 13:32:00,90.0,76.0,30.01,SW,233,3.0,7.0,64,0.00,,,0.00,,2013-07-09 18:32:00,
2013-07-09 13:43:00,90.0,76.0,30.01,SW,233,3.0,7.0,64,0.00,,,0.00,,2013-07-09 18:43:00,
2013-07-09 13:52:00,90.0,76.0,30.01,SW,233,3.0,7.0,64,0.00,,,0.00,,2013-07-09 18:52:00,
2013-07-09 14:01:00,90.0,76.0,30.01,SW,233,3.0,7.0,64,0.00,,,0.00,,2013-07-09 19:01:00,
2013-07-09 14:22:00,91.0,76.0,30.01,WSW,255,4.0,9.0,62,0.00,,,0.00,,2013-07-09 19:22:00,
2013-07-09 14:33:00,91.0,76.0,30.01,WSW,255,4.0,9.0,62,0.00,,,0.00,,2013-07-09 19:33:00,
2013-07-09 14:42:00,91.0,76.0,30.01,WSW,255,4.0,9.0,62,0.00,,,0.00,,2013-07-09 19:42:00,
2013-07-09 14:52:00,91.0,76.0,30.01,WSW,255,4.0,9.0,62,0.00,,,0.00,,2013-07-09 19:52:00,
2013-07-09 15:01:00,91.0,76.0,30.01,WSW,255,4.0,9.0,62,0.00,,,0.00,,2013-07-09 20:01:00,
2013-07-09 15:22:00,91.0,74.0,30.00,West,270,2.0,8.0,58,0.00,,,0.00,,2013-07-09 20:22:00,
2013-07-09 15:32:00,91.0,74.0,30.00,West,270,2.0,8.0,58,0.00,,,0.00,,2013-07-09 20:32:00,
2013-07-09 15:43:00,91.0,74.0,30.00,West,270,2.0,8.0,58,0.00,,,0.00,,2013-07-09 20:43:00,
2013-07-09 15:52:00,91.0,74.0,30.00,West,270,2.0,8.0,58,0.00,,,0.00,,2013-07-09 20:52:00,
2013-07-09 16:01:00,91.0,74.0,30.00,West,270,2.0,8.0,58,0.00,,,0.00,,2013-07-09 21:01:00,
2013-07-09 16:52:00,89.0,76.0,29.96,SW,232,2.0,5.0,66,0.00,,,0.00,,2013-07-09 21:52:00,
2013-07-09 17:01:00,89.0,76.0,29.96,SW,232,2.0,5.0,66,0.00,,,0.00,,2013-07-09 22:01:00,
2013-07-09 17:11:00,89.0,76.0,29.96,SW,232,2.0,5.0,66,0.00,,,0.00,,2013-07-09 22:11:00,
2013-07-09 17:22:00,89.0,76.0,29.94,SW,228,2.0,7.0,65,-99.99,,,-99.99,,2013-07-09 22:22:00,
2013-07-09 17:33:00,89.0,76.0,29.94,SW,228,2.0,7.0,65,-99.99,,,-99.99,,2013-07-09 22:33:00,
2013-07-09 17:42:00,89.0,76.0,29.94,SW,228,2.0,7.0,65,-99.99,,,-99.99,,2013-07-09 22:42:00,
2013-07-09 17:53:00,90.0,77.0,29.95,SSW,196,0.0,3.0,66,0.00,,,0.00,,2013-07-09 22:53:00,
2013-07-09 18:02:00,90.0,77.0,29.95,SSW,196,0.0,3.0,66,0.00,,,0.00,,2013-07-09 23:02:00,
2013-07-09 18:11:00,90.0,77.0,29.95,SSW,196,0.0,3.0,66,0.00,,,0.00,,2013-07-09 23:11:00,
2013-07-09 18:22:00,90.0,77.0,29.95,SSW,196,0.0,3.0,66,0.00,,,0.00,,2013-07-09 23:22:00,
2013-07-09 19:22:00,88.0,76.0,29.94,SSW,212,0.0,3.0,68,0.00,,,0.00,,2013-07-10 00:22:00,
2013-07-09 19:33:00,88.0,76.0,29.94,SSW,212,0.0,3.0,68,0.00,,,0.00,,2013-07-10 00:33:00,
2013-07-09 19:43:00,88.0,76.0,29.94,SSW,212,0.0,3.0,68,0.00,,,0.00,,2013-07-10 00:43:00,
2013-07-09 19:52:00,88.0,76.0,29.94,SSW,212,0.0,3.0,68,0.00,,,0.00,,2013-07-10 00:52:00,
2013-07-09 20:01:00,88.0,76.0,29.94,SSW,212,0.0,3.0,68,0.00,,,0.00,,2013-07-10 01:01:00,
2013-07-09 21:23:00,83.0,75.0,29.95,SSW,212,0.0,1.0,77,0.00,,,0.00,,2013-07-10 02:23:00,
2013-07-09 21:34:00,83.0,75.0,29.95,SSW,212,0.0,1.0,77,0.00,,,0.00,,2013-07-10 02:34:00,
2013-07-09 21:43:00,83.0,75.0,29.95,SSW,212,0.0,1.0,77,0.00,,,0.00,,2013-07-10 02:43:00,
2013-07-09 21:53:00,83.0,75.0,29.95,SSW,212,0.0,1.0,77,0.00,,,0.00,,2013-07-10 02:53:00,
2013-07-09 22:01:00,83.0,75.0,29.95,SSW,212,0.0,1.0,77,0.00,,,0.00,,2013-07-10 03:01:00,
2013-07-09 22:22:00,81.0,74.0,29.95,SSE,165,2.0,4.0,79,0.00,,,0.00,,2013-07-10 03:22:00,
2013-07-09 22:32:00,81.0,74.0,29.95,SSE,165,2.0,4.0,79,0.00,,,0.00,,2013-07-10 03:32:00,
2013-07-09 22:43:00,81.0,74.0,29.95,SSE,165,2.0,4.0,79,0.00,,,0.00,,2013-07-10 03:43:00,
2013-07-09 22:52:00,81.0,74.0,29.95,SSE,165,2.0,4.0,79,0.00,,,0.00,,2013-07-10 03:52:00,
2013-07-09 23:01:00,81.0,74.0,29.95,SSE,165,2.0,4.0,79,0.00,,,0.00,,2013-07-10 04:01:00,
2013-07-09 23:52:00,80.0,74.0,29.95,South,170,0.0,3.0,82,0.00,,,0.00,,2013-07-10 04:52:00,